Wind_Speed
17 16 15 14 12 11 11 11 12 14 16 18 18 18 18 17 17 16 17 18 17 17 17 17 17 17 18 18 17 16 15 14 15 17 19 20 20 19 17 16 15 15 13 11 10 9 7 7 6 5 4 3 3 3 4 4 4 3 3 5 7 7 6 4 3 4 13 18 19 20 20 20 19 17 17 16 15 15 15 15 16 17 18 18 18
18 17 16 14 12 11 11 11 11 13 16 17 18 18 17 17 16 16 16 17 17 17 18 17 17 17 17 18 18 17 16 15 15 16 18 18 18 18 17 16 15 14 13 12 11 9 8 8 7 5 4 4 5 5 6 7 6 6 6 7 8 9 7 5 4 5 13 18 19 20 20 19 17 17 16 16 15 14 14 15 15 16 17 17 17
18 18 16 15 12 11 10 11 11 12 15 16 18 18 17 16 16 16 16 17 16 16 17 17 17 17 17 17 17 17 17 16 15 15 17 17 18 18 17 16 15 14 13 12 11 10 9 9 9 8 7 8 9 9 10 10 9 9 9 9 11 11 9 7 5 6 12 18 20 20 20 18 16 16 16 15 14 14 14 14 15 16 17 16 16
18 18 17 16 13 11 11 11 10 11 13 14 16 16 16 16 16 15 16 16 16 15 16 16 16 16 16 16 16 16 16 15 15 14 15 16 17 16 15 14 13 13 12 11 10 9 9 10 10 10 11 12 14 14 14 14 13 12 11 12 14 13 11 8 7 9 12 16 21 21 20 18 15 15 15 14 14 13 13 14 14 15 15 15 15
17 18 18 16 14 12 11 11 10 11 12 14 14 14 15 15 16 15 15 17 16 15 15 15 16 16 15 15 15 15 15 15 15 14 14 14 14 13 12 12 12 12 11 10 9 9 9 10 11 11 12 15 18 18 17 17 16 15 14 15 17 16 14 12 11 13 14 16 19 20 20 18 15 14 14 13 13 13 12 13 14 14 14 14 14
17 17 18 17 15 13 11 11 11 11 12 13 13 13 13 14 15 15 16 16 16 15 14 13 14 15 15 14 13 13 13 13 14 13 14 13 13 12 11 11 11 11 10 10 9 9 9 10 11 12 13 17 20 21 20 20 20 19 18 18 19 18 16 15 14 16 17 16 17 17 18 18 15 14 13 12 12 12 12 12 13 14 13 13 13
16 16 17 16 15 13 12 12 11 11 11 12 13 13 13 13 14 15 15 16 17 15 13 12 12 13 14 13 12 12 11 12 12 12 13 13 12 12 11 10 10 10 9 10 10 9 9 10 12 12 13 17 22 24 24 23 23 21 20 19 20 19 18 17 16 16 16 16 16 15 16 16 15 14 13 12 12 12 11 11 12 13 13 13 12
16 15 17 17 16 14 12 13 12 11 10 10 12 13 13 13 14 14 14 15 17 16 14 12 10 11 12 11 11 11 10 10 11 11 12 13 12 11 10 11 10 10 10 10 10 9 8 10 12 13 13 16 23 25 25 25 24 21 19 19 19 20 20 18 16 16 15 15 15 15 14 15 14 13 12 12 12 11 11 11 12 13 13 12 12
16 16 18 18 17 15 13 13 13 12 11 10 10 12 13 12 13 14 13 14 16 16 14 12 10 10 10 10 10 10 9 9 10 11 11 11 12 11 10 11 11 10 10 10 10 9 8 10 12 13 13 16 23 26 26 25 24 22 19 17 18 19 19 18 17 16 15 14 14 14 14 13 13 13 12 12 12 11 10 10 11 12 12 12 11
17 18 19 18 17 15 13 12 12 12 11 11 10 12 13 12 13 14 13 13 16 17 15 13 11 10 9 8 8 8 8 8 8 9 10 10 11 11 9 10 11 10 10 9 10 10 7 9 12 13 13 16 23 26 26 24 23 21 19 17 16 16 17 17 17 15 14 13 13 13 13 13 13 13 13 12 12 11 10 10 10 11 12 11 11
18 19 19 18 16 14 14 13 12 12 11 11 11 12 13 13 13 14 14 14 16 17 15 14 12 10 9 7 7 7 7 7 7 7 9 10 9 9 9 9 10 9 9 9 9 10 8 8 11 12 11 15 22 25 24 23 22 21 19 16 14 14 15 16 15 14 13 12 11 12 13 13 12 12 12 12 12 11 11 10 10 11 11 11 10
18 19 19 17 16 14 14 13 12 12 12 12 12 12 12 12 13 14 14 13 16 17 16 15 12 10 9 7 6 6 5 6 6 6 8 9 9 8 8 9 9 8 8 8 9 10 8 8 9 10 10 14 19 23 23 22 22 21 19 16 13 12 13 14 13 13 12 11 11 11 13 14 12 11 12 11 11 11 11 10 10 10 10 10 10
19 19 19 16 15 14 14 13 12 12 13 13 12 13 12 12 13 15 13 13 16 18 17 15 13 11 9 7 6 6 5 5 6 6 7 8 8 9 9 9 9 7 7 7 8 9 9 8 8 8 11 13 17 22 24 23 22 20 19 16 12 9 11 13 13 12 12 11 11 11 12 13 12 10 11 11 11 11 10 9 10 10 10 10 10
18 18 18 16 14 13 14 13 12 12 13 13 12 13 12 13 14 14 12 12 14 17 17 15 12 11 8 8 6 5 4 6 7 7 7 6 7 7 9 10 9 7 7 7 7 8 9 8 7 8 11 12 15 22 25 23 22 20 20 17 13 9 9 12 13 13 12 11 11 12 13 13 12 11 11 11 11 11 9 9 9 9 9 9 9
17 18 17 16 14 14 16 14 12 12 12 12 11 12 13 13 13 13 12 12 13 15 15 14 13 11 8 8 7 4 5 7 7 7 7 5 4 5 7 9 9 8 7 7 7 8 8 8 8 8 10 12 14 21 24 23 22 21 21 19 14 11 10 11 13 14 12 10 11 12 13 13 12 11 11 11 12 11 10 9 9 9 9 9 8
16 17 17 16 15 15 17 15 13 13 13 11 10 11 12 12 13 12 12 13 13 14 14 13 12 10 8 8 6 4 5 7 8 7 8 5 4 5 7 8 8 8 7 6 6 7 8 8 8 8 10 12 14 20 23 23 23 22 21 19 16 12 11 9 10 12 10 9 10 11 12 13 13 12 12 12 12 12 11 10 9 9 9 8 7
15 15 16 16 15 16 17 16 14 14 13 11 9 9 10 11 12 12 12 13 14 14 13 13 12 9 8 7 6 5 6 7 8 9 8 5 5 7 7 7 7 8 6 6 6 7 9 9 9 8 9 12 14 18 22 22 22 21 20 19 16 14 11 9 7 8 8 6 7 9 11 13 14 13 12 12 12 12 11 10 10 9 9 8 8
14 13 13 14 15 15 15 14 12 12 12 11 11 10 10 10 11 12 12 12 14 15 13 13 12 9 8 7 6 5 7 8 9 10 8 5 6 9 8 7 8 8 7 7 7 7 9 10 10 9 9 12 14 17 21 22 22 19 19 18 17 15 11 8 6 5 5 5 7 8 9 12 14 14 13 13 13 12 10 10 10 9 9 8 8
14 12 11 11 12 12 12 11 10 10 10 11 11 11 11 10 10 11 12 11 12 13 13 13 11 9 8 7 7 6 8 9 10 10 8 6 7 9 8 9 9 8 7 6 6 7 8 10 10 10 10 12 14 17 20 22 21 19 19 17 16 15 12 9 7 6 6 5 5 6 7 9 12 13 14 14 13 12 10 10 10 9 9 8 8
15 12 11 9 9 9 9 8 8 8 8 9 11 11 11 11 10 11 11 11 10 11 11 12 10 9 8 7 8 7 7 9 10 10 8 7 8 8 8 9 10 8 6 5 5 6 7 9 10 11 11 12 15 17 20 22 22 19 19 17 15 14 12 10 8 7 5 3 2 2 4 5 8 10 13 14 13 13 11 10 9 8 8 7 7
15 13 11 9 8 7 7 6 7 7 6 6 9 11 12 11 11 11 12 11 10 10 11 11 10 9 8 8 8 7 7 8 8 8 9 9 9 7 8 9 9 8 5 4 3 4 6 8 10 10 11 12 16 17 18 22 22 20 19 16 14 13 12 10 8 7 5 3 2 2 2 2 3 6 9 13 13 13 12 10 9 8 7 6 6
14 13 10 9 8 6 6 5 6 5 4 5 7 10 11 12 11 12 12 11 11 11 11 11 11 10 8 6 7 7 6 7 7 7 8 10 9 7 7 7 7 6 4 3 3 4 6 8 10 11 11 12 15 17 17 21 23 21 19 16 14 13 12 11 10 8 6 4 4 3 3 2 2 2 5 10 12 12 12 10 9 8 7 6 5
14 13 11 10 7 6 5 4 4 4 4 4 5 7 9 11 12 13 12 11 11 12 13 12 11 10 8 6 6 6 6 7 7 7 8 9 9 8 7 7 6 5 3 1 1 3 5 7 10 11 11 12 14 17 16 19 24 22 20 17 14 13 11 11 10 8 6 5 4 5 4 4 2 1 1 5 10 10 10 10 9 8 7 6 4
15 13 12 10 7 6 5 4 4 4 4 3 3 4 7 10 12 13 12 11 12 14 15 13 11 10 9 9 9 8 7 6 6 8 9 9 9 9 8 7 6 4 2 1 1 1 3 7 10 11 12 12 14 16 16 17 23 24 21 18 13 12 12 10 9 7 5 5 5 5 5 4 3 2 1 2 6 8 8 8 8 8 7 6 5
17 15 14 11 9 7 6 6 5 5 5 4 4 3 5 9 12 13 12 11 13 16 16 14 14 12 11 11 10 9 7 6 5 7 10 11 11 10 9 7 6 5 2 1 2 2 1 6 10 11 12 13 15 16 16 15 20 23 23 20 13 11 12 10 8 6 5 5 5 5 5 5 4 3 1 1 3 6 8 8 7 7 7 6 6
16 15 14 12 11 9 7 7 6 6 4 4 4 4 4 7 11 12 12 12 13 16 17 17 16 15 14 13 11 9 7 5 4 5 8 12 13 11 9 8 7 5 2 1 2 3 2 6 10 12 13 15 16 17 16 14 16 21 23 22 16 11 11 10 7 6 6 6 6 6 6 6 5 4 3 3 3 5 7 8 7 7 7 7 7
17 15 13 11 11 10 9 8 7 6 5 5 4 5 6 7 10 11 12 12 13 15 16 17 17 16 14 13 12 9 7 6 5 5 7 11 13 12 10 8 7 5 3 2 1 3 7 11 13 13 15 16 16 16 15 12 12 18 23 23 19 13 11 10 7 6 7 8 9 8 7 7 6 5 4 4 5 6 6 8 8 8 8 8 8
20 17 13 11 11 10 10 9 8 7 7 8 6 6 7 8 10 11 12 13 13 15 16 16 16 15 14 13 12 10 8 7 6 7 8 9 10 12 12 9 8 7 5 3 2 5 10 13 13 13 13 13 14 14 12 9 7 12 19 22 20 17 14 12 9 6 7 9 10 10 9 8 7 6 6 6 7 8 8 8 8 9 9 9 9
20 19 15 14 13 11 11 10 10 9 9 9 7 7 8 9 11 12 13 13 14 16 17 16 15 14 14 12 11 9 9 8 6 7 8 9 10 11 12 10 9 9 8 6 5 7 11 12 11 10 10 10 11 11 10 8 7 9 14 16 17 17 15 14 10 6 7 8 8 9 10 10 9 8 7 7 7 9 9 8 8 10 11 10 10
18 17 16 15 14 14 12 11 11 10 9 10 9 8 8 9 10 12 13 14 15 17 17 17 16 15 14 12 11 11 10 9 8 7 7 9 11 11 12 11 11 10 10 9 9 10 11 11 10 9 9 10 10 10 9 8 9 10 11 12 13 14 14 13 9 7 8 8 7 8 9 9 10 10 9 8 8 9 10 10 9 10 12 11 11
17 15 14 14 14 14 12 11 12 10 10 10 10 10 8 9 8 9 11 13 15 17 18 18 18 16 15 14 12 11 11 10 9 7 7 9 11 12 12 12 12 12 12 11 12 13 13 13 12 10 10 11 10 10 9 7 8 10 11 10 10 12 13 12 10 9 9 10 9 8 8 8 9 10 10 10 10 11 11 12 10 10 11 12 12
15 13 11 12 13 12 10 11 13 12 10 10 10 10 10 9 8 7 8 10 13 16 18 18 17 17 16 15 13 11 11 11 10 7 8 9 10 11 12 13 13 13 14 12 12 14 14 14 14 14 13 12 11 12 11 9 7 9 10 9 8 10 11 11 12 12 12 11 10 10 9 8 9 10 11 12 12 12 13 14 13 11 11 12 13
15 12 9 10 11 10 9 11 15 14 12 11 10 9 9 9 9 9 8 8 10 13 16 15 16 17 16 14 13 13 12 12 11 9 10 9 8 10 11 12 12 13 14 14 13 13 14 14 14 15 14 13 13 15 14 12 9 8 9 9 8 9 9 10 11 12 13 14 13 12 11 10 9 10 11 12 13 13 14 16 15 13 13 12 13
14 10 8 9 10 10 9 11 15 15 14 12 11 9 9 9 9 10 10 9 9 10 11 11 12 15 15 14 14 13 12 11 11 11 11 10 9 10 11 11 11 12 13 14 14 13 12 12 14 16 15 15 15 16 16 14 10 10 10 10 10 9 9 10 10 9 10 13 15 15 14 12 11 10 11 12 13 14 15 17 17 16 15 14 12
13 10 8 7 9 9 9 12 15 16 14 12 10 10 8 7 6 8 10 10 9 8 8 9 9 10 11 13 14 12 12 11 11 10 11 11 11 11 12 12 12 12 12 13 14 14 13 10 11 15 17 17 15 14 17 15 12 13 13 12 12 11 11 12 12 10 8 9 12 15 16 15 14 13 12 13 13 14 16 17 18 18 17 16 14
13 11 8 7 7 7 8 11 15 15 12 10 8 7 6 6 7 8 9 10 10 8 8 9 8 7 6 9 11 13 14 13 11 10 11 11 11 12 13 13 13 13 13 14 15 15 14 9 8 13 17 17 14 14 18 17 15 14 14 14 13 13 14 14 14 13 11 10 10 13 16 17 16 15 14 14 14 15 16 17 18 18 18 19 17
13 12 9 7 5 6 7 9 12 11 9 8 8 7 7 8 9 10 9 9 8 7 8 8 8 7 6 6 8 10 12 14 12 10 10 10 10 12 12 13 15 15 14 15 16 16 13 9 8 11 16 17 15 16 20 19 17 16 14 14 14 15 17 17 16 15 15 14 11 11 15 18 17 15 15 15 15 16 16 16 17 18 18 19 19
15 13 10 8 5 6 7 9 10 10 10 11 10 10 10 10 11 11 9 7 6 7 7 6 6 6 5 5 5 6 8 11 13 11 10 9 10 12 11 12 14 13 13 15 17 16 13 9 11 11 14 18 18 17 19 19 18 17 15 13 13 13 15 17 17 16 16 16 15 14 14 17 18 17 17 16 16 16 16 15 15 16 17 17 18
17 15 12 9 7 6 8 10 11 12 14 14 14 13 12 11 10 10 8 6 4 6 6 4 4 4 5 6 7 6 5 6 10 13 12 10 10 11 11 12 13 13 13 14 17 18 16 14 15 14 14 18 20 18 19 20 19 18 16 14 13 12 12 14 16 16 15 14 15 16 15 16 19 19 18 17 16 17 17 15 15 15 16 16 17
20 16 13 11 9 9 10 12 12 14 16 17 16 14 13 10 9 9 7 7 6 5 4 2 4 6 8 9 10 10 8 7 8 11 13 12 11 11 11 12 13 14 14 15 17 19 19 18 18 18 18 19 20 19 20 22 21 20 18 17 16 14 12 13 15 15 15 14 13 15 16 17 18 19 18 17 17 18 17 16 16 16 16 17 17
22 18 15 13 12 12 13 14 15 16 16 16 15 15 12 10 9 8 6 6 7 7 6 4 2 3 7 10 11 11 10 10 9 10 11 11 11 11 13 14 14 15 15 16 17 18 18 19 19 19 19 18 19 19 22 22 20 19 19 19 18 15 14 15 15 15 15 15 15 15 17 17 18 18 18 16 17 17 18 18 18 18 18 18 18
25 22 17 15 14 14 14 15 16 17 16 15 15 15 12 9 8 7 4 5 6 7 8 8 8 5 2 4 7 9 10 11 11 11 11 10 10 10 12 14 16 17 17 16 16 17 18 19 19 18 17 17 17 19 22 24 20 18 19 20 20 17 16 17 18 16 15 15 16 17 18 19 19 18 18 17 17 18 19 20 20 21 21 21 21
27 23 18 16 16 17 16 16 17 17 17 15 15 15 13 9 7 5 4 4 4 4 7 9 11 11 9 5 1 3 7 9 10 11 12 11 10 10 10 11 12 14 15 16 15 15 16 18 20 20 20 18 17 18 22 24 22 19 19 20 20 19 19 20 21 19 17 16 17 18 18 20 21 20 19 19 18 19 20 21 22 23 23 23 23
28 24 21 19 18 18 18 18 18 17 16 15 15 16 14 12 10 7 5 4 4 3 5 9 11 12 12 11 8 4 1 4 7 9 10 9 9 9 9 9 10 10 11 13 13 14 14 14 16 18 20 20 19 20 22 23 23 22 22 22 18 18 20 21 21 20 17 18 18 18 18 18 19 20 20 20 20 20 21 22 23 24 25 26 25
30 26 23 21 18 18 19 19 19 18 16 14 16 18 16 15 13 10 8 6 6 4 3 7 9 11 13 13 12 10 6 2 2 4 6 6 7 6 6 8 10 10 10 11 12 13 13 12 12 13 15 17 18 19 21 23 25 25 25 24 18 15 18 19 19 18 17 18 20 20 20 20 19 19 20 20 20 21 22 24 25 25 25 26 26
33 29 25 21 18 18 20 21 21 19 16 15 17 19 17 15 14 12 9 7 7 5 2 5 6 9 11 12 13 12 11 9 6 4 2 2 3 3 3 4 6 8 8 9 10 11 12 11 11 12 12 12 12 13 17 20 23 26 26 26 21 16 15 16 17 16 16 19 21 22 23 23 22 21 20 20 20 21 22 24 26 27 26 26 26
35 31 26 22 20 20 20 21 22 20 17 16 17 19 18 16 14 12 9 7 6 4 2 2 3 6 8 10 11 11 11 11 10 9 7 5 4 3 2 1 2 4 5 6 7 8 10 10 11 12 12 12 10 9 12 14 17 22 22 23 25 23 19 16 15 14 14 16 20 22 23 25 25 25 23 22 21 21 22 22 24 25 26 26 26
36 32 28 24 22 22 21 21 22 20 17 16 17 18 18 17 14 12 11 9 6 4 3 2 1 3 4 7 9 9 10 11 11 10 9 9 8 7 5 3 1 1 3 4 5 7 8 8 10 11 11 12 11 10 11 11 13 16 18 21 24 26 24 21 19 17 16 17 18 19 22 25 26 26 26 25 23 22 22 22 22 23 24 26 26
38 34 30 27 24 23 22 21 22 20 17 16 17 18 18 17 15 13 12 10 7 6 6 4 2 1 1 4 6 7 8 9 9 9 9 9 8 8 7 6 4 3 1 2 3 5 7 7 8 9 10 11 12 13 13 13 13 13 15 19 21 22 23 24 24 25 24 23 23 22 21 22 25 26 26 26 25 24 23 23 22 23 25 26 27
38 34 31 28 26 25 24 22 22 20 17 16 18 18 18 17 16 14 13 11 10 11 10 7 6 5 2 0 2 5 6 7 7 7 7 7 7 7 7 6 5 4 3 2 2 4 6 7 8 9 10 11 13 15 16 16 16 15 14 15 18 19 19 21 23 25 27 28 29 29 26 22 22 23 24 24 25 25 25 24 24 25 26 28 29
39 36 33 30 28 26 26 24 22 20 17 16 18 19 19 18 17 16 14 12 12 12 11 10 9 7 4 2 1 2 3 4 5 5 4 4 5 5 5 5 5 4 3 3 3 4 6 7 9 10 11 12 13 14 16 17 17 17 15 14 15 17 18 20 22 24 26 28 29 33 32 28 25 23 21 21 22 24 25 26 26 27 28 30 30
Wind_Direction
149 147 139 134 128 118 114 119 137 149 150 154 156 153 150 146 143 142 143 142 134 126 123 117 116 119 120 119 115 112 111 106 105 118 125 122 119 119 116 113 112 110 110 111 112 115 122 128 132 140 141 144 141 126 125 129 132 131 146 128 107 101 91 86 70 137 138 120 113 113 111 112 113 116 116 117 119 119 117 111 108 105 102 97 93
151 151 142 139 133 123 117 117 132 150 154 156 158 158 155 152 149 147 148 146 139 129 124 118 114 117 119 118 116 115 115 112 108 116 123 122 119 117 114 111 109 105 99 95 97 102 108 111 111 118 123 130 130 132 130 126 128 128 137 128 113 106 95 95 97 158 147 125 117 116 116 118 118 119 117 119 120 121 118 113 110 107 102 97 94
152 153 146 142 138 129 122 118 123 146 157 158 160 162 159 157 154 152 152 151 145 134 127 121 115 114 116 114 113 113 115 117 114 115 118 120 119 116 113 110 107 101 91 83 83 91 99 99 96 97 107 119 123 127 126 123 125 127 132 126 115 108 103 108 116 157 153 132 124 121 120 122 123 122 121 121 121 121 118 114 111 106 101 96 92
155 154 149 145 143 134 125 119 118 138 154 158 161 165 163 161 158 157 156 155 150 141 133 124 119 115 114 113 111 111 114 118 120 119 117 118 118 117 116 114 111 103 94 84 76 84 99 99 95 92 103 117 120 123 122 122 124 124 127 123 115 110 110 115 130 142 141 134 126 123 123 125 128 125 122 122 120 120 118 114 110 105 101 95 92
157 155 151 149 145 139 129 121 119 131 148 156 160 166 169 167 162 161 160 160 155 148 141 131 123 119 117 114 112 112 113 118 124 127 124 122 123 123 124 126 122 113 102 95 81 78 99 106 100 92 102 118 119 120 120 120 121 120 121 118 113 113 116 121 133 131 124 126 124 124 125 127 131 127 125 124 123 120 117 114 109 105 101 95 91
157 155 153 152 147 144 136 129 125 130 145 157 162 165 171 175 167 164 164 163 160 153 148 142 130 124 120 116 114 113 113 116 123 130 133 131 131 132 135 138 134 126 111 103 90 78 97 111 107 94 100 117 118 118 118 118 117 116 117 116 115 117 120 124 126 122 119 122 124 127 128 130 133 132 130 127 124 122 118 116 110 104 100 95 90
155 153 155 153 150 148 143 137 130 131 141 156 162 162 166 178 176 168 166 167 166 161 155 149 138 129 123 118 114 114 115 115 118 126 136 139 138 138 137 140 140 133 117 106 97 84 96 114 112 97 96 115 118 117 117 116 115 114 117 118 119 122 124 127 123 118 118 121 126 129 130 131 133 133 131 127 123 123 121 116 110 104 99 95 91
151 151 155 153 153 150 148 143 133 132 135 147 157 160 161 170 179 174 169 170 171 168 163 156 144 134 127 120 113 113 115 114 117 121 133 142 142 142 136 136 141 136 121 109 100 89 97 116 116 102 97 114 118 117 116 114 114 114 117 120 122 127 130 131 126 119 117 119 125 129 132 132 134 136 134 129 124 123 122 116 110 104 99 95 92
152 150 153 154 154 150 148 144 134 131 129 134 146 158 159 162 173 173 171 174 176 173 170 164 153 141 133 123 114 114 115 115 118 124 131 139 143 143 138 136 139 135 124 113 106 96 99 118 120 110 103 114 120 118 118 117 117 116 117 121 122 128 134 133 127 119 114 114 121 127 130 132 134 136 134 129 124 124 122 116 110 104 100 96 93
153 150 153 154 150 147 147 145 137 130 125 127 135 152 160 160 164 167 169 174 178 176 173 171 161 152 143 130 120 115 115 117 120 130 133 136 141 139 137 139 140 136 127 119 111 103 103 123 124 115 111 119 123 120 121 122 121 120 121 123 124 127 134 135 128 116 109 110 118 126 128 130 133 135 135 132 129 126 121 116 111 105 101 98 93
151 151 153 151 145 144 147 146 141 132 127 128 133 146 158 160 161 166 169 173 178 178 177 174 166 159 152 140 129 119 115 123 128 135 139 139 141 137 134 142 144 139 133 125 118 113 113 130 126 116 119 125 128 127 125 126 125 125 126 127 129 131 135 134 126 114 106 107 116 126 129 131 133 135 136 135 132 124 120 116 110 106 102 99 92
148 153 151 148 142 141 147 148 146 141 137 137 138 143 152 159 164 166 169 178 179 179 182 177 170 165 157 150 139 127 122 131 138 140 143 142 146 146 140 145 148 142 138 134 126 124 124 134 132 118 127 131 135 137 133 133 131 127 128 131 136 138 137 130 122 115 109 109 114 121 127 132 134 135 136 135 132 125 122 118 110 107 104 100 96
146 154 154 152 144 141 148 150 152 153 149 146 146 146 149 153 159 164 170 185 181 178 183 179 172 168 162 162 151 133 131 140 145 146 147 145 148 154 150 149 149 148 149 145 134 133 134 139 142 127 132 135 138 145 142 141 137 131 132 135 145 148 136 128 122 117 113 114 116 119 124 131 136 136 138 135 129 125 123 120 114 111 108 104 102
146 156 158 158 150 145 151 153 156 158 157 152 151 150 150 151 155 160 166 182 182 176 179 178 173 170 166 172 166 143 140 147 149 151 154 152 152 155 152 149 149 156 158 153 144 141 144 147 153 137 137 141 142 149 148 146 142 134 135 139 151 159 148 137 128 119 117 121 120 121 125 130 137 139 139 134 128 127 127 126 121 116 113 112 111
145 153 159 163 159 155 155 157 160 163 162 157 156 153 151 153 154 157 160 172 179 176 176 177 176 173 170 172 171 157 153 152 153 161 163 161 161 163 155 153 154 161 164 161 156 153 155 157 163 148 140 145 147 154 153 149 145 139 140 146 155 168 168 150 132 124 121 126 127 126 128 132 138 141 138 133 131 133 135 132 127 123 120 119 119
146 152 159 164 164 162 161 162 165 167 166 161 162 156 152 152 152 154 157 165 174 177 177 178 178 177 172 170 173 171 166 159 161 169 169 166 173 180 167 159 159 163 171 174 170 168 167 167 168 160 147 148 150 157 160 154 148 145 147 152 157 175 181 156 135 127 121 124 129 129 133 138 140 143 141 135 136 138 139 135 131 127 125 126 124
144 152 160 164 166 163 164 166 166 166 166 163 164 163 159 154 151 154 156 159 169 176 179 181 183 182 175 171 176 178 170 165 167 171 172 178 183 181 173 163 165 167 174 176 176 178 175 174 172 172 162 155 154 159 164 159 152 150 152 156 161 180 187 156 134 120 115 125 135 133 136 145 146 146 146 141 141 141 139 136 133 132 129 130 126
136 147 156 162 165 165 169 171 170 166 164 162 165 172 171 165 156 156 158 158 167 175 180 185 190 185 176 171 168 168 169 168 168 175 181 192 185 179 172 161 165 167 168 168 169 174 175 176 176 181 179 167 161 160 165 164 157 154 154 160 169 182 185 157 144 118 108 127 137 134 133 149 154 151 153 149 147 145 143 139 135 137 135 132 130
123 131 140 154 163 168 173 173 177 168 164 164 167 175 178 176 165 162 163 162 169 178 182 186 191 183 177 169 157 154 165 168 167 177 187 188 182 176 167 158 165 163 158 164 163 168 174 177 178 183 186 178 171 164 167 169 161 155 153 160 172 181 179 163 159 137 117 125 133 134 131 149 160 160 159 154 152 149 147 144 140 142 140 134 131
115 120 124 140 153 165 171 171 177 169 167 166 171 177 180 180 173 170 166 166 174 181 184 184 186 179 173 170 163 157 159 168 169 179 185 175 178 177 162 159 171 168 155 167 170 171 178 181 179 179 183 179 174 169 168 172 166 156 152 157 169 176 175 168 163 150 133 132 141 149 141 147 165 170 167 160 156 153 152 149 149 148 144 138 133
116 120 122 134 142 153 161 162 167 163 160 158 169 176 178 179 177 174 166 171 179 182 183 181 183 177 174 178 174 166 158 167 172 180 183 173 176 178 163 159 171 172 161 170 182 193 198 196 187 180 184 179 173 171 170 173 171 160 155 159 169 175 175 170 162 159 151 157 188 205 185 156 163 175 174 169 161 158 158 157 158 157 151 146 139
128 128 124 130 133 139 147 154 159 156 144 136 154 165 173 175 172 171 169 174 177 180 182 180 183 179 183 189 174 169 166 171 175 179 183 179 178 175 165 161 166 169 166 165 185 209 216 211 197 185 186 184 175 172 170 175 175 165 161 166 174 178 179 175 166 162 162 171 193 197 205 196 162 171 181 178 171 166 166 166 167 165 161 158 151
140 137 132 133 132 137 136 136 137 133 126 118 134 150 165 170 169 169 170 171 171 181 185 182 184 181 188 196 179 176 181 181 185 182 178 182 181 174 168 168 166 162 158 148 214 224 222 215 201 190 186 184 179 174 169 173 177 171 165 170 177 180 182 180 168 161 169 180 194 196 204 204 191 216 213 188 182 176 174 174 176 174 171 169 166
141 139 138 141 141 145 135 123 113 108 107 106 124 145 162 169 169 168 170 168 170 180 182 183 186 184 191 198 189 187 196 195 201 197 184 182 185 182 174 171 170 164 153 86 4 303 221 203 194 189 181 174 173 176 172 171 178 176 171 172 175 179 183 184 168 162 182 194 202 204 209 210 211 234 301 212 190 184 184 187 187 187 186 183 184
140 140 142 147 149 152 143 131 116 107 100 100 123 149 166 172 172 172 174 171 173 177 176 182 186 187 197 202 198 197 204 199 198 202 192 187 189 191 181 176 175 169 166 64 36 16 248 200 186 177 170 162 158 169 173 168 175 180 177 173 175 181 185 189 176 173 204 218 218 214 216 217 218 225 226 226 200 189 190 199 205 206 204 200 201
147 146 146 150 156 159 153 146 136 131 131 130 143 164 174 180 180 179 181 179 178 179 179 184 187 190 196 200 203 207 208 202 186 187 198 196 192 190 187 186 179 167 167 106 50 41 112 171 170 165 159 155 150 157 168 163 168 180 183 178 178 188 195 203 196 191 222 239 239 233 228 227 229 231 216 207 211 202 194 203 216 219 219 217 217
162 158 155 159 163 167 167 165 164 170 176 169 167 174 178 187 190 189 190 191 186 186 188 190 192 193 195 197 204 211 210 211 202 186 195 200 198 195 195 195 177 166 174 154 67 85 123 135 139 147 150 151 145 145 159 160 158 174 187 188 190 201 206 214 215 214 238 249 250 250 248 246 245 247 240 222 218 221 210 208 218 223 227 228 228
176 175 175 176 174 180 184 188 193 202 195 184 181 179 187 193 195 198 199 203 197 193 197 199 197 196 199 200 204 213 211 211 210 196 188 191 201 200 201 205 183 172 184 175 126 124 137 135 132 136 142 148 143 134 140 146 142 162 183 193 200 210 213 215 220 229 253 260 260 261 260 258 256 255 253 241 229 231 226 219 222 223 229 234 234
181 183 187 188 188 196 199 207 213 215 201 190 186 181 194 200 201 206 207 210 206 202 202 203 202 200 207 208 208 217 217 215 212 203 190 188 199 199 199 207 197 183 187 184 161 145 149 148 146 146 146 152 149 138 133 130 130 152 176 188 197 205 207 212 219 230 252 265 270 268 266 265 266 265 262 255 243 240 238 233 228 224 225 232 235
182 185 193 196 201 207 209 213 214 211 196 187 185 186 196 202 204 208 211 213 210 210 208 207 208 209 214 215 217 221 221 219 218 216 204 197 200 200 199 204 204 193 188 182 169 165 165 162 164 164 161 164 164 158 150 143 144 153 173 189 199 209 211 211 213 224 241 253 264 271 272 275 277 275 272 270 264 256 252 246 239 231 228 228 232
184 188 197 208 212 213 216 213 208 201 188 184 188 192 196 196 198 201 209 214 212 214 213 213 215 216 218 220 225 227 226 223 222 222 211 206 204 205 207 207 209 200 197 189 173 172 175 172 174 180 181 179 181 179 172 167 164 163 172 189 206 223 229 222 213 216 234 244 255 267 273 281 288 288 283 283 282 277 271 260 251 246 239 234 232
185 192 204 219 218 217 217 206 199 193 186 191 195 196 196 196 195 193 197 207 213 217 219 221 223 224 224 224 228 230 231 227 225 221 204 205 206 208 213 216 216 207 207 205 186 179 178 178 179 185 188 186 191 196 192 187 187 181 184 194 207 224 235 233 225 223 231 240 250 262 267 273 283 292 292 291 291 290 288 277 266 259 251 246 240
186 200 219 225 222 217 208 197 194 190 190 197 203 206 209 209 209 205 195 190 200 211 218 224 227 229 229 227 227 224 227 225 222 218 207 206 207 211 216 219 220 212 212 215 207 193 185 185 187 188 190 197 200 200 203 200 199 203 201 210 217 221 232 236 234 233 237 241 245 253 260 263 269 282 290 292 294 295 294 287 281 274 262 256 253
197 207 221 226 225 217 203 197 195 194 198 205 216 225 228 225 220 214 205 191 185 194 204 209 215 222 225 228 228 221 221 220 217 217 215 211 210 216 222 225 224 215 213 217 219 215 205 201 206 209 212 225 219 201 205 207 207 216 214 219 227 227 231 238 241 240 241 242 244 249 253 255 258 268 279 287 292 294 293 289 288 285 274 266 260
209 210 219 226 226 219 210 207 201 199 204 213 225 231 230 221 213 211 204 192 176 170 184 193 202 210 215 222 227 226 222 217 211 213 217 213 210 216 225 231 231 225 221 219 219 223 224 219 226 228 221 228 229 208 206 210 212 219 220 226 232 232 234 241 245 244 243 241 246 249 247 249 252 259 268 276 284 290 291 290 290 289 284 276 265
214 216 221 224 223 216 207 206 204 206 209 212 214 211 200 187 187 189 183 179 172 164 175 190 201 207 204 209 217 223 224 221 212 207 214 214 210 215 222 224 225 227 225 220 216 217 223 229 241 230 212 213 218 205 201 208 217 221 225 235 237 238 242 244 244 244 245 246 252 250 243 243 249 255 259 266 274 282 287 291 294 294 292 287 279
220 224 223 218 212 196 184 183 192 198 195 187 184 174 158 162 171 165 157 164 173 169 172 186 198 206 210 208 208 214 221 225 220 215 219 217 208 212 218 214 212 217 218 216 212 209 215 230 251 227 205 206 208 198 194 201 217 226 227 234 238 243 248 250 247 244 245 249 254 250 242 240 246 254 256 261 268 276 284 290 296 298 296 293 290
220 221 218 212 201 187 174 162 164 165 157 155 162 157 141 143 153 156 157 160 169 170 165 176 190 200 216 226 224 217 217 220 221 221 220 217 208 209 215 209 205 209 214 214 210 204 199 213 244 234 209 208 207 200 197 202 220 233 230 227 234 243 249 255 256 251 249 254 255 248 243 242 244 250 253 257 263 271 279 285 292 296 297 295 294
214 214 211 207 199 191 172 155 152 150 145 147 153 148 134 133 137 141 142 131 147 174 171 181 201 222 237 246 254 252 242 223 220 222 218 212 203 201 206 208 208 210 211 212 210 208 203 212 233 237 224 218 215 210 207 209 219 231 232 230 236 241 245 253 257 255 254 261 261 250 243 241 243 246 248 252 258 265 273 280 287 292 296 299 299
210 210 206 204 202 191 174 158 153 152 148 148 150 142 134 135 133 128 118 100 113 148 156 186 225 242 249 249 249 251 254 245 230 227 224 221 213 204 203 205 209 213 211 210 211 213 217 224 231 230 225 221 221 218 215 216 217 224 231 232 235 239 240 244 251 256 258 263 264 254 245 241 240 243 243 247 254 262 269 275 281 287 293 297 300
207 210 206 202 203 195 181 165 158 159 156 153 150 144 143 147 145 138 117 99 107 111 105 96 92 249 254 253 247 243 245 247 242 234 228 227 223 214 211 213 215 218 217 215 217 220 225 231 233 229 223 219 222 219 215 221 222 220 225 229 233 238 239 239 246 255 260 264 264 256 247 242 240 239 240 244 251 259 266 273 277 282 288 291 295
205 209 205 201 202 196 184 173 167 164 161 159 156 153 154 160 161 155 132 121 118 98 87 81 69 59 6 272 254 245 243 242 239 234 231 228 222 213 209 214 220 222 222 222 226 231 234 239 242 240 234 227 227 225 218 221 226 222 224 231 235 236 234 235 241 249 256 260 262 259 249 243 241 239 239 243 249 257 263 269 274 278 282 285 288
206 207 204 200 201 195 185 180 176 172 168 169 167 163 164 172 178 173 161 161 150 109 75 68 65 60 59 59 59 245 244 239 232 228 231 231 228 222 211 210 216 218 220 223 228 234 237 241 246 248 247 240 235 236 229 224 227 227 229 233 234 233 229 228 233 240 249 253 255 259 254 245 241 239 240 243 248 255 261 267 271 275 278 279 282
205 207 204 201 202 198 191 186 183 179 177 177 174 172 174 181 189 188 189 205 191 154 68 62 63 61 61 58 57 49 293 237 229 228 230 233 234 232 223 219 222 222 223 225 227 230 233 237 241 245 248 245 241 240 236 232 230 228 232 236 233 229 225 225 231 237 245 250 251 254 255 249 242 239 241 245 250 255 260 266 269 273 275 275 277
205 208 207 202 203 204 196 189 188 186 184 181 175 176 181 187 194 195 200 210 199 182 69 62 64 64 63 58 56 51 44 72 173 211 229 241 245 245 236 229 231 234 235 235 234 233 232 230 230 233 239 244 246 244 239 238 233 225 230 236 230 225 228 230 234 238 244 249 253 255 254 254 249 244 244 247 253 258 262 264 265 269 270 271 275
206 209 208 204 206 209 200 191 192 193 191 185 179 185 196 203 206 206 208 207 194 187 88 63 63 66 67 65 66 62 56 62 76 98 145 232 259 278 264 241 237 240 242 243 244 243 241 237 230 226 227 235 247 249 241 241 236 228 229 236 236 235 241 239 232 237 246 250 253 254 254 254 252 249 249 250 253 258 263 264 264 267 268 270 275
209 208 206 206 209 210 206 196 195 198 197 190 186 194 207 214 215 215 219 214 198 187 131 78 58 64 67 69 72 71 69 67 66 68 70 72 62 43 30 302 241 242 251 254 255 257 256 254 248 240 236 236 242 250 246 246 244 240 238 241 243 241 243 243 235 237 249 253 252 252 254 253 251 249 250 252 254 256 262 265 266 267 268 271 275
211 206 203 207 211 211 210 203 199 201 201 198 194 199 208 213 213 213 216 214 209 199 171 161 31 47 61 67 71 72 74 75 74 71 67 68 67 63 59 50 44 250 257 259 264 270 270 267 263 259 257 253 250 251 252 249 247 248 245 243 246 246 244 245 246 246 250 255 256 255 255 253 249 249 249 252 256 256 260 264 267 269 270 273 275
209 207 206 209 211 211 211 208 204 204 205 204 202 204 209 213 213 215 216 213 208 208 206 214 245 273 38 60 68 72 76 79 82 82 78 74 70 67 64 58 53 41 351 276 269 273 274 272 270 270 270 269 264 261 260 257 251 251 249 247 251 254 251 249 250 251 250 252 254 254 256 252 249 248 248 251 255 257 260 263 267 271 273 274 276
210 210 209 210 211 211 211 210 209 209 210 210 208 208 212 214 215 218 221 217 207 210 219 227 234 239 240 65 60 75 84 83 85 87 84 78 72 69 65 60 55 47 33 355 309 286 281 274 270 271 269 269 269 266 266 264 258 257 258 257 256 257 255 253 254 256 255 254 254 254 253 247 244 243 244 247 252 256 260 263 266 269 271 274 276
210 209 210 211 212 212 212 212 212 213 216 217 213 212 215 217 218 220 223 220 213 216 224 228 232 235 228 227 245 106 107 96 96 96 88 76 63 57 52 48 45 37 27 2 331 305 291 278 269 266 263 262 262 263 264 265 264 262 262 265 264 261 259 257 257 259 262 261 259 257 252 246 243 242 242 246 250 253 257 260 262 265 268 271 274
Height
1527 1528 1530 1530 1531 1530 1530 1530 1530 1530 1530 1531 1532 1533 1533 1534 1534 1534 1535 1535 1535 1536 1536 1537 1537 1537 1537 1536 1537 1537 1537 1538 1538 1539 1540 1540 1541 1542 1542 1543 1544 1545 1545 1546 1546 1546 1546 1546 1546 1546 1546 1547 1548 1549 1549 1550 1550 1551 1551 1551 1552 1552 1553 1554 1554 1554 1554 1553 1553 1554 1554 1554 1554 1554 1554 1555 1555 1555 1556 1555 1555 1555 1555 1555 1555
1526 1528 1529 1530 1531 1530 1531 1530 1530 1530 1530 1531 1532 1533 1533 1534 1534 1535 1535 1535 1536 1536 1537 1538 1538 1538 1538 1538 1538 1538 1538 1538 1539 1540 1540 1541 1541 1542 1543 1544 1545 1546 1546 1547 1547 1547 1547 1547 1547 1546 1546 1547 1548 1549 1549 1550 1551 1551 1552 1552 1552 1553 1554 1554 1555 1555 1555 1554 1554 1554 1555 1555 1555 1555 1555 1556 1556 1556 1557 1557 1557 1557 1556 1556 1556
1526 1527 1528 1530 1531 1531 1531 1530 1530 1530 1531 1531 1532 1533 1534 1534 1535 1536 1536 1536 1537 1537 1538 1538 1539 1539 1539 1539 1539 1539 1539 1539 1540 1540 1541 1541 1542 1543 1544 1545 1545 1546 1547 1547 1547 1547 1547 1547 1547 1547 1547 1547 1548 1549 1549 1550 1551 1552 1552 1553 1553 1553 1554 1555 1556 1556 1556 1555 1555 1555 1555 1556 1556 1556 1556 1557 1557 1558 1558 1558 1558 1558 1558 1558 1558
1526 1527 1528 1530 1530 1531 1531 1530 1530 1530 1531 1532 1533 1533 1534 1535 1535 1536 1537 1537 1538 1538 1539 1539 1539 1540 1540 1540 1540 1540 1540 1540 1540 1541 1541 1542 1543 1543 1544 1545 1546 1547 1547 1548 1548 1548 1548 1548 1548 1548 1548 1548 1548 1549 1550 1551 1551 1552 1553 1553 1553 1553 1555 1556 1557 1557 1557 1556 1556 1555 1556 1557 1557 1557 1557 1558 1558 1559 1559 1559 1559 1559 1559 1559 1559
1526 1527 1528 1529 1530 1531 1531 1531 1530 1531 1531 1532 1533 1534 1535 1535 1536 1537 1537 1538 1539 1540 1540 1540 1540 1540 1541 1541 1541 1541 1541 1541 1541 1541 1542 1542 1543 1544 1545 1546 1547 1548 1548 1549 1549 1549 1549 1549 1549 1549 1549 1549 1549 1549 1550 1551 1552 1553 1554 1554 1554 1554 1556 1557 1558 1557 1557 1557 1557 1557 1557 1557 1558 1558 1558 1559 1559 1560 1560 1561 1561 1560 1560 1561 1560
1526 1526 1527 1529 1530 1530 1531 1531 1531 1531 1531 1532 1533 1534 1535 1536 1536 1537 1538 1539 1540 1541 1541 1542 1541 1541 1541 1541 1542 1542 1542 1542 1542 1542 1542 1543 1544 1545 1546 1546 1547 1548 1549 1549 1550 1550 1549 1550 1550 1550 1550 1550 1550 1550 1551 1552 1553 1553 1554 1555 1555 1556 1557 1558 1558 1558 1558 1558 1558 1558 1558 1558 1559 1559 1560 1560 1561 1561 1562 1562 1562 1562 1562 1562 1562
1525 1526 1527 1528 1529 1530 1531 1531 1531 1531 1531 1532 1533 1534 1535 1536 1537 1537 1539 1539 1540 1541 1542 1543 1543 1542 1542 1542 1542 1543 1543 1543 1543 1543 1543 1543 1544 1545 1546 1547 1548 1548 1549 1549 1550 1550 1550 1550 1550 1551 1552 1551 1551 1551 1552 1553 1554 1554 1555 1555 1555 1556 1557 1559 1559 1559 1559 1559 1560 1560 1560 1559 1560 1560 1561 1561 1562 1562 1563 1563 1563 1563 1563 1563 1563
1525 1526 1527 1528 1529 1530 1530 1531 1531 1532 1532 1532 1533 1534 1535 1536 1537 1538 1539 1540 1541 1541 1542 1543 1544 1544 1543 1542 1543 1543 1543 1543 1544 1543 1543 1543 1544 1545 1546 1547 1548 1549 1549 1550 1550 1550 1551 1551 1551 1552 1553 1553 1552 1553 1554 1554 1555 1555 1556 1556 1556 1556 1557 1559 1560 1560 1560 1561 1561 1561 1561 1561 1561 1561 1562 1562 1563 1563 1564 1564 1564 1564 1564 1564 1564
1525 1526 1527 1528 1529 1529 1530 1531 1531 1532 1532 1532 1533 1534 1535 1535 1537 1538 1539 1540 1541 1541 1542 1543 1544 1544 1544 1543 1543 1544 1544 1544 1544 1544 1544 1544 1545 1545 1546 1547 1548 1549 1549 1550 1550 1551 1551 1552 1552 1553 1554 1555 1554 1554 1555 1555 1556 1556 1557 1557 1557 1557 1558 1559 1560 1561 1561 1562 1562 1562 1562 1562 1562 1562 1563 1563 1564 1564 1565 1565 1565 1565 1564 1564 1564
1525 1526 1527 1528 1529 1529 1530 1531 1531 1532 1532 1532 1533 1534 1535 1535 1536 1538 1539 1540 1541 1541 1542 1543 1544 1545 1545 1544 1544 1544 1544 1545 1545 1545 1545 1545 1545 1546 1547 1548 1548 1549 1550 1550 1551 1551 1552 1553 1553 1554 1555 1556 1556 1556 1556 1557 1557 1557 1558 1558 1558 1558 1558 1559 1560 1561 1562 1562 1563 1563 1563 1563 1563 1564 1564 1564 1565 1565 1565 1566 1566 1566 1565 1565 1565
1525 1526 1528 1528 1529 1529 1530 1531 1531 1531 1532 1532 1533 1534 1534 1535 1536 1537 1538 1539 1540 1541 1542 1543 1544 1545 1545 1545 1545 1545 1545 1545 1545 1546 1545 1545 1546 1547 1547 1548 1549 1549 1550 1551 1551 1552 1553 1554 1554 1555 1556 1557 1557 1557 1558 1558 1558 1558 1559 1559 1559 1558 1558 1560 1561 1562 1562 1563 1564 1564 1564 1565 1565 1565 1565 1565 1566 1566 1566 1566 1566 1566 1566 1566 1566
1525 1527 1528 1528 1529 1529 1530 1530 1531 1531 1532 1532 1533 1533 1534 1535 1536 1537 1538 1539 1540 1541 1542 1543 1544 1545 1545 1545 1545 1545 1545 1545 1546 1546 1546 1546 1547 1547 1548 1548 1549 1550 1551 1551 1551 1552 1553 1554 1555 1556 1557 1558 1558 1558 1558 1558 1559 1559 1560 1560 1560 1560 1559 1560 1562 1562 1563 1564 1565 1565 1566 1566 1566 1566 1566 1566 1567 1567 1567 1567 1567 1567 1567 1567 1566
1525 1527 1528 1528 1529 1529 1530 1530 1531 1531 1532 1532 1533 1533 1534 1535 1535 1536 1537 1538 1539 1540 1542 1543 1544 1544 1545 1545 1545 1545 1546 1546 1546 1547 1547 1547 1547 1547 1548 1549 1549 1550 1551 1551 1552 1552 1553 1554 1555 1556 1557 1559 1559 1559 1559 1559 1559 1560 1561 1561 1561 1561 1560 1561 1562 1563 1564 1565 1566 1566 1566 1567 1567 1567 1567 1567 1567 1568 1568 1568 1567 1567 1567 1567 1567
1526 1527 1528 1529 1529 1529 1530 1531 1531 1531 1532 1532 1533 1534 1534 1535 1535 1536 1537 1538 1539 1540 1542 1543 1544 1544 1545 1545 1546 1546 1546 1546 1547 1547 1547 1547 1548 1548 1548 1548 1549 1550 1551 1551 1552 1553 1553 1554 1555 1556 1557 1559 1559 1559 1559 1559 1560 1561 1561 1562 1561 1561 1561 1561 1562 1563 1564 1565 1566 1567 1567 1568 1568 1568 1568 1568 1568 1568 1568 1568 1568 1568 1568 1568 1568
1526 1527 1528 1529 1529 1529 1530 1531 1531 1532 1532 1533 1533 1534 1534 1535 1536 1536 1537 1539 1539 1541 1542 1543 1544 1544 1545 1545 1545 1546 1546 1546 1547 1547 1547 1548 1548 1548 1548 1548 1549 1550 1550 1551 1552 1553 1553 1554 1555 1556 1558 1559 1560 1560 1560 1560 1561 1562 1562 1562 1562 1561 1562 1562 1562 1563 1564 1566 1567 1567 1568 1568 1569 1569 1569 1569 1569 1569 1569 1569 1568 1568 1568 1568 1568
1527 1527 1528 1529 1529 1529 1530 1531 1531 1532 1532 1533 1533 1534 1535 1535 1536 1537 1537 1539 1540 1541 1542 1543 1544 1544 1545 1545 1545 1545 1546 1546 1546 1547 1547 1548 1548 1548 1548 1548 1549 1549 1550 1551 1552 1553 1553 1554 1555 1556 1558 1559 1560 1561 1561 1561 1562 1563 1563 1563 1562 1562 1562 1563 1563 1563 1564 1566 1567 1567 1568 1568 1569 1569 1569 1569 1570 1569 1569 1569 1569 1569 1569 1569 1569
1527 1528 1528 1529 1529 1530 1530 1531 1531 1532 1533 1533 1534 1534 1535 1535 1536 1537 1537 1539 1540 1541 1542 1543 1543 1544 1544 1544 1545 1545 1545 1545 1546 1547 1547 1548 1548 1548 1548 1548 1549 1549 1550 1551 1552 1552 1553 1554 1555 1556 1558 1559 1560 1561 1561 1562 1563 1563 1564 1563 1563 1562 1562 1564 1565 1564 1565 1566 1567 1567 1568 1568 1569 1569 1570 1570 1570 1570 1570 1570 1570 1570 1569 1569 1569
1527 1528 1529 1529 1530 1530 1531 1531 1532 1532 1533 1533 1534 1535 1535 1536 1536 1537 1538 1539 1540 1541 1542 1542 1543 1544 1544 1544 1544 1544 1544 1544 1545 1546 1547 1547 1548 1548 1548 1549 1549 1549 1550 1550 1551 1552 1553 1553 1554 1555 1557 1559 1560 1561 1562 1562 1563 1563 1564 1564 1563 1562 1563 1564 1565 1565 1566 1566 1567 1567 1568 1568 1568 1569 1569 1570 1570 1570 1570 1570 1570 1570 1570 1570 1569
1528 1529 1529 1530 1531 1531 1531 1532 1532 1533 1533 1534 1534 1535 1536 1536 1536 1537 1538 1538 1540 1541 1541 1542 1543 1543 1543 1543 1543 1543 1543 1544 1545 1546 1547 1547 1548 1548 1548 1548 1549 1550 1550 1550 1551 1551 1552 1553 1554 1555 1556 1558 1560 1561 1562 1562 1563 1564 1564 1564 1563 1562 1563 1564 1565 1566 1566 1567 1567 1567 1568 1568 1568 1568 1569 1569 1570 1570 1571 1571 1571 1570 1570 1570 1570
1528 1529 1530 1531 1531 1531 1532 1532 1532 1533 1534 1534 1535 1535 1536 1536 1536 1537 1538 1538 1539 1540 1541 1542 1542 1542 1542 1542 1543 1543 1543 1544 1544 1546 1546 1547 1548 1548 1548 1548 1549 1550 1550 1550 1550 1551 1552 1553 1553 1554 1555 1557 1559 1561 1562 1562 1563 1564 1565 1564 1563 1563 1564 1564 1566 1566 1567 1567 1568 1568 1568 1568 1568 1569 1569 1569 1570 1570 1570 1571 1571 1570 1570 1570 1570
1529 1530 1530 1531 1531 1531 1531 1532 1532 1532 1533 1534 1535 1535 1536 1536 1536 1537 1537 1538 1539 1540 1540 1541 1541 1541 1542 1542 1542 1543 1543 1544 1544 1545 1546 1546 1547 1548 1548 1548 1549 1549 1549 1550 1550 1551 1552 1553 1553 1554 1555 1557 1558 1560 1562 1562 1563 1564 1565 1564 1564 1564 1564 1565 1566 1566 1567 1568 1568 1568 1568 1568 1568 1569 1569 1570 1570 1570 1570 1570 1571 1571 1571 1570 1570
1529 1530 1530 1531 1531 1531 1531 1532 1532 1532 1533 1534 1535 1535 1536 1536 1536 1537 1537 1538 1539 1539 1540 1540 1541 1541 1541 1541 1541 1542 1543 1543 1544 1545 1546 1546 1547 1548 1548 1549 1549 1550 1550 1550 1550 1551 1551 1552 1553 1553 1554 1556 1558 1560 1561 1562 1563 1564 1565 1565 1564 1565 1565 1565 1566 1566 1567 1568 1568 1569 1569 1569 1569 1569 1569 1570 1570 1570 1570 1570 1570 1571 1571 1571 1571
1529 1529 1530 1531 1531 1532 1531 1532 1531 1532 1533 1533 1534 1535 1535 1536 1536 1536 1537 1538 1538 1539 1539 1540 1540 1540 1541 1541 1542 1542 1543 1544 1544 1545 1546 1547 1547 1548 1548 1549 1549 1550 1550 1550 1550 1551 1551 1551 1552 1553 1554 1556 1558 1560 1561 1562 1563 1564 1565 1565 1565 1565 1566 1566 1566 1567 1567 1568 1568 1569 1569 1569 1569 1569 1569 1570 1570 1571 1571 1570 1570 1570 1571 1571 1571
1528 1529 1530 1531 1532 1532 1532 1532 1531 1532 1532 1533 1534 1534 1535 1535 1536 1536 1537 1537 1538 1539 1539 1539 1540 1540 1541 1541 1542 1542 1543 1544 1544 1545 1546 1547 1548 1548 1548 1549 1550 1550 1551 1551 1551 1551 1551 1551 1552 1553 1554 1555 1557 1559 1561 1561 1562 1564 1565 1565 1565 1565 1566 1566 1566 1567 1567 1568 1568 1568 1569 1569 1570 1570 1570 1570 1570 1571 1571 1571 1571 1571 1570 1570 1570
1528 1529 1530 1531 1531 1531 1532 1532 1532 1532 1532 1533 1534 1534 1535 1535 1536 1536 1536 1537 1537 1538 1538 1539 1539 1540 1540 1541 1541 1542 1543 1544 1544 1545 1546 1547 1547 1548 1548 1549 1549 1550 1551 1552 1552 1552 1551 1551 1552 1552 1554 1555 1557 1559 1561 1561 1562 1563 1564 1565 1565 1565 1566 1566 1566 1567 1567 1567 1568 1568 1569 1569 1570 1570 1570 1571 1571 1571 1571 1572 1571 1571 1571 1570 1570
1527 1529 1529 1530 1531 1532 1532 1531 1532 1532 1533 1533 1533 1534 1534 1535 1535 1535 1536 1536 1537 1537 1537 1538 1538 1539 1540 1540 1541 1542 1543 1543 1544 1545 1546 1547 1547 1548 1548 1548 1549 1550 1551 1552 1552 1552 1552 1552 1552 1553 1554 1555 1557 1558 1560 1561 1561 1562 1564 1565 1565 1565 1566 1566 1566 1567 1567 1567 1567 1568 1568 1569 1570 1570 1570 1571 1571 1571 1571 1572 1571 1571 1571 1570 1570
1527 1528 1529 1530 1531 1531 1532 1531 1532 1532 1532 1533 1533 1534 1534 1534 1535 1535 1536 1536 1537 1537 1537 1537 1538 1539 1539 1540 1541 1542 1542 1543 1544 1544 1545 1546 1547 1548 1548 1548 1548 1549 1550 1552 1553 1553 1553 1553 1553 1553 1554 1555 1557 1558 1560 1561 1561 1561 1563 1564 1565 1565 1565 1566 1566 1567 1567 1567 1567 1568 1568 1569 1569 1570 1570 1570 1571 1571 1571 1571 1571 1571 1571 1570 1570
1527 1528 1529 1530 1531 1531 1531 1531 1531 1532 1532 1532 1533 1533 1533 1534 1534 1535 1536 1536 1537 1537 1537 1537 1538 1539 1539 1540 1540 1541 1542 1542 1543 1544 1544 1545 1546 1547 1548 1548 1548 1548 1550 1551 1553 1553 1553 1554 1554 1554 1555 1556 1556 1557 1559 1560 1561 1561 1562 1564 1564 1564 1565 1565 1566 1566 1567 1567 1567 1567 1568 1568 1569 1569 1569 1570 1570 1570 1571 1571 1571 1570 1570 1570 1570
1527 1528 1529 1530 1531 1531 1531 1531 1531 1531 1531 1532 1532 1533 1533 1533 1534 1535 1535 1536 1536 1536 1536 1537 1538 1538 1539 1539 1540 1541 1541 1542 1543 1544 1544 1545 1546 1546 1546 1547 1547 1547 1549 1551 1553 1554 1554 1554 1554 1555 1555 1556 1557 1557 1558 1559 1560 1561 1562 1563 1564 1564 1564 1565 1565 1566 1566 1567 1567 1567 1567 1568 1568 1568 1569 1569 1569 1570 1570 1570 1570 1570 1570 1570 1569
1527 1528 1529 1530 1530 1531 1531 1531 1531 1531 1531 1531 1532 1532 1533 1533 1534 1534 1534 1535 1536 1536 1536 1537 1537 1538 1538 1539 1540 1540 1540 1541 1542 1543 1544 1544 1545 1544 1545 1545 1545 1546 1548 1550 1552 1553 1554 1554 1555 1555 1556 1556 1557 1557 1558 1559 1560 1561 1562 1563 1564 1564 1564 1564 1564 1565 1566 1566 1566 1566 1567 1567 1567 1568 1568 1568 1568 1569 1569 1569 1570 1570 1569 1569 1569
1526 1527 1528 1529 1530 1530 1531 1531 1530 1530 1531 1531 1532 1532 1533 1533 1534 1534 1534 1534 1535 1535 1536 1536 1537 1537 1538 1538 1539 1539 1540 1540 1541 1543 1544 1543 1543 1543 1544 1544 1545 1546 1547 1549 1550 1552 1553 1554 1554 1555 1555 1556 1556 1557 1558 1559 1559 1560 1561 1562 1563 1563 1563 1563 1563 1564 1565 1565 1566 1566 1566 1566 1566 1566 1567 1567 1567 1567 1568 1568 1569 1569 1569 1568 1568
1526 1527 1528 1529 1529 1530 1530 1530 1530 1530 1530 1531 1531 1532 1533 1533 1534 1534 1534 1534 1534 1535 1535 1535 1536 1537 1537 1538 1538 1539 1539 1540 1541 1542 1542 1541 1541 1542 1544 1544 1545 1546 1547 1548 1549 1551 1552 1553 1553 1554 1555 1555 1556 1556 1557 1558 1559 1559 1560 1561 1562 1562 1562 1562 1562 1563 1564 1564 1565 1565 1565 1565 1566 1566 1566 1566 1566 1567 1567 1567 1567 1568 1568 1568 1568
1525 1527 1528 1529 1529 1529 1530 1530 1530 1530 1530 1530 1531 1532 1533 1533 1534 1534 1534 1534 1534 1534 1534 1535 1535 1536 1536 1537 1538 1538 1538 1539 1540 1541 1541 1540 1541 1542 1543 1543 1544 1546 1547 1547 1549 1550 1551 1552 1553 1553 1554 1554 1555 1555 1556 1557 1558 1559 1560 1560 1561 1562 1561 1561 1561 1562 1562 1563 1563 1564 1564 1564 1565 1565 1565 1565 1565 1566 1566 1566 1566 1567 1567 1567 1567
1524 1526 1527 1528 1528 1529 1529 1530 1530 1530 1531 1531 1531 1532 1532 1533 1533 1534 1533 1533 1533 1533 1534 1534 1534 1535 1535 1536 1536 1537 1537 1538 1539 1539 1539 1540 1540 1541 1542 1543 1543 1544 1545 1546 1547 1549 1550 1551 1552 1552 1552 1552 1553 1554 1555 1556 1557 1558 1559 1559 1560 1561 1561 1561 1560 1560 1561 1561 1562 1562 1563 1563 1564 1564 1564 1564 1564 1565 1565 1565 1565 1565 1566 1566 1566
1524 1525 1527 1527 1527 1528 1529 1529 1530 1530 1531 1532 1532 1532 1533 1533 1533 1533 1533 1533 1533 1533 1533 1533 1533 1533 1534 1535 1535 1536 1537 1537 1538 1538 1538 1539 1540 1541 1541 1542 1543 1544 1544 1545 1546 1547 1548 1550 1551 1551 1551 1550 1551 1553 1554 1555 1556 1557 1558 1558 1559 1560 1560 1561 1560 1559 1560 1560 1560 1560 1561 1562 1562 1563 1563 1563 1563 1564 1564 1564 1564 1564 1564 1565 1565
1523 1524 1526 1526 1527 1527 1528 1529 1529 1530 1531 1532 1532 1532 1533 1533 1533 1532 1532 1533 1532 1532 1532 1532 1532 1532 1533 1533 1533 1534 1535 1536 1537 1537 1537 1538 1539 1540 1540 1541 1543 1544 1544 1544 1545 1546 1548 1549 1549 1550 1550 1550 1550 1552 1553 1554 1556 1556 1556 1557 1557 1558 1559 1560 1559 1559 1559 1559 1559 1559 1559 1560 1561 1561 1562 1562 1562 1563 1563 1563 1563 1563 1563 1563 1563
1522 1523 1524 1525 1526 1527 1527 1528 1529 1530 1531 1532 1532 1533 1533 1533 1533 1533 1533 1532 1532 1533 1532 1532 1532 1532 1532 1532 1533 1533 1534 1535 1535 1536 1536 1537 1538 1539 1539 1540 1542 1543 1543 1543 1544 1546 1547 1547 1548 1549 1549 1550 1550 1551 1552 1554 1555 1555 1555 1555 1555 1556 1557 1558 1558 1558 1558 1557 1557 1557 1557 1558 1559 1560 1560 1561 1561 1561 1562 1562 1562 1562 1562 1562 1562
1520 1522 1523 1524 1525 1525 1526 1527 1529 1530 1531 1531 1532 1533 1533 1533 1533 1533 1533 1533 1533 1533 1533 1532 1532 1532 1532 1532 1532 1532 1533 1534 1534 1535 1535 1536 1537 1538 1539 1540 1540 1541 1542 1543 1544 1545 1545 1546 1547 1547 1548 1549 1550 1551 1552 1553 1554 1555 1555 1554 1554 1554 1555 1556 1557 1557 1557 1556 1556 1556 1556 1556 1557 1558 1558 1559 1560 1560 1560 1560 1560 1560 1560 1560 1560
1519 1520 1522 1522 1523 1524 1525 1527 1528 1529 1530 1531 1532 1533 1533 1533 1534 1534 1534 1534 1533 1533 1533 1533 1532 1532 1532 1532 1531 1531 1532 1532 1533 1533 1534 1535 1536 1537 1538 1538 1539 1540 1542 1543 1543 1544 1545 1545 1546 1546 1547 1548 1549 1549 1551 1551 1552 1554 1554 1554 1554 1554 1554 1554 1555 1555 1556 1555 1554 1554 1554 1554 1555 1555 1556 1557 1558 1558 1559 1559 1559 1559 1559 1559 1559
1518 1520 1521 1521 1521 1522 1523 1525 1527 1528 1530 1531 1532 1532 1533 1533 1534 1534 1535 1534 1534 1533 1533 1533 1532 1532 1531 1531 1531 1530 1531 1531 1532 1532 1533 1534 1535 1536 1537 1538 1538 1539 1540 1541 1542 1543 1544 1544 1544 1545 1546 1547 1548 1548 1549 1550 1551 1552 1553 1553 1553 1553 1553 1553 1554 1554 1554 1554 1554 1553 1553 1553 1553 1554 1554 1555 1556 1556 1557 1557 1557 1557 1558 1558 1558
1517 1518 1519 1520 1520 1521 1522 1523 1525 1527 1528 1530 1531 1531 1532 1533 1533 1534 1535 1535 1534 1534 1534 1533 1533 1532 1531 1530 1530 1530 1530 1530 1531 1531 1532 1532 1533 1535 1536 1537 1537 1538 1538 1539 1540 1541 1542 1542 1542 1542 1544 1546 1546 1547 1548 1549 1550 1551 1551 1552 1551 1551 1552 1552 1552 1552 1552 1553 1553 1553 1552 1552 1551 1552 1552 1553 1553 1554 1555 1555 1555 1556 1556 1556 1557
1514 1516 1517 1519 1520 1520 1521 1522 1523 1525 1527 1529 1530 1531 1532 1532 1533 1534 1534 1535 1535 1535 1534 1533 1533 1532 1530 1529 1529 1529 1529 1529 1529 1530 1530 1531 1532 1533 1534 1535 1535 1536 1537 1537 1538 1539 1540 1541 1541 1541 1542 1544 1545 1546 1547 1547 1547 1549 1550 1550 1550 1550 1550 1550 1550 1551 1551 1551 1552 1552 1551 1550 1550 1550 1551 1551 1551 1552 1552 1553 1553 1554 1554 1555 1555
1512 1514 1516 1517 1519 1520 1521 1522 1522 1523 1525 1527 1529 1530 1531 1532 1533 1534 1534 1534 1534 1534 1534 1533 1533 1532 1530 1529 1529 1528 1528 1528 1528 1529 1529 1530 1530 1531 1532 1533 1534 1534 1535 1536 1536 1537 1538 1539 1539 1539 1540 1542 1543 1544 1545 1545 1545 1547 1549 1549 1549 1549 1548 1548 1548 1549 1549 1550 1551 1551 1550 1550 1549 1549 1549 1549 1549 1549 1550 1551 1551 1551 1552 1553 1553
1511 1513 1514 1516 1517 1518 1520 1521 1522 1523 1524 1526 1528 1530 1531 1532 1533 1534 1534 1534 1534 1534 1533 1533 1532 1532 1531 1530 1529 1528 1528 1527 1528 1528 1528 1529 1529 1530 1531 1532 1532 1533 1534 1535 1535 1535 1536 1537 1538 1539 1539 1540 1541 1542 1544 1545 1544 1546 1547 1547 1547 1547 1546 1546 1546 1547 1548 1548 1549 1549 1549 1549 1548 1548 1547 1547 1547 1547 1548 1548 1549 1549 1550 1550 1551
1509 1510 1512 1513 1515 1517 1518 1520 1521 1522 1523 1525 1527 1529 1530 1531 1532 1533 1533 1533 1533 1533 1533 1532 1532 1532 1531 1530 1529 1529 1528 1527 1527 1528 1528 1528 1529 1529 1530 1531 1531 1532 1533 1534 1534 1535 1536 1536 1537 1538 1538 1539 1539 1540 1542 1543 1543 1544 1545 1544 1545 1545 1544 1545 1545 1545 1546 1546 1547 1548 1548 1547 1547 1547 1546 1545 1545 1546 1546 1546 1547 1547 1548 1549 1549
1506 1508 1510 1512 1514 1515 1517 1519 1520 1521 1522 1524 1526 1528 1529 1530 1531 1532 1533 1533 1533 1533 1532 1532 1532 1532 1531 1531 1530 1530 1529 1529 1528 1528 1529 1529 1529 1529 1530 1530 1531 1532 1532 1533 1534 1535 1536 1536 1537 1537 1537 1537 1538 1539 1540 1541 1541 1542 1542 1543 1543 1544 1545 1545 1544 1543 1544 1544 1545 1546 1546 1546 1546 1545 1545 1544 1544 1544 1544 1545 1545 1545 1546 1547 1547
1503 1506 1509 1511 1513 1514 1516 1518 1519 1521 1522 1523 1525 1527 1529 1530 1531 1531 1532 1532 1533 1532 1532 1532 1532 1532 1532 1531 1531 1531 1530 1530 1529 1529 1529 1529 1529 1530 1530 1530 1531 1531 1532 1533 1534 1535 1535 1536 1536 1536 1536 1536 1537 1537 1538 1538 1539 1539 1540 1541 1542 1543 1544 1544 1543 1543 1542 1542 1543 1544 1544 1544 1544 1544 1543 1543 1543 1543 1543 1543 1543 1543 1544 1544 1545
1501 1505 1508 1510 1511 1513 1515 1516 1518 1520 1521 1522 1524 1526 1528 1529 1530 1530 1531 1532 1532 1532 1532 1532 1532 1531 1532 1532 1531 1531 1531 1531 1530 1530 1530 1530 1530 1530 1530 1530 1531 1531 1532 1532 1533 1533 1534 1535 1536 1536 1536 1536 1536 1536 1537 1537 1537 1538 1538 1539 1539 1541 1542 1542 1541 1541 1541 1541 1542 1542 1542 1542 1541 1541 1541 1541 1541 1541 1541 1541 1541 1541 1541 1542 1543
1500 1503 1505 1507 1509 1511 1513 1515 1517 1518 1519 1521 1523 1525 1527 1528 1529 1529 1530 1531 1531 1532 1532 1532 1532 1532 1532 1531 1531 1532 1531 1531 1531 1531 1531 1531 1531 1531 1531 1531 1531 1531 1531 1531 1532 1532 1533 1534 1535 1535 1535 1536 1535 1536 1536 1536 1536 1537 1537 1538 1537 1538 1539 1539 1539 1539 1539 1539 1540 1540 1541 1540 1539 1539 1539 1539 1539 1539 1539 1539 1539 1539 1539 1540 1541
1499 1501 1504 1506 1508 1510 1512 1513 1515 1516 1518 1519 1522 1524 1525 1527 1528 1528 1529 1530 1530 1531 1531 1531 1532 1532 1531 1531 1531 1531 1531 1531 1531 1531 1531 1532 1532 1532 1532 1531 1531 1531 1531 1531 1531 1531 1531 1532 1533 1534 1535 1535 1535 1535 1535 1535 1535 1535 1536 1536 1536 1536 1536 1536 1536 1536 1537 1537 1537 1538 1539 1539 1537 1536 1537 1537 1537 1537 1537 1537 1537 1537 1537 1538 1539
1498 1501 1503 1504 1507 1508 1510 1511 1513 1515 1516 1518 1520 1522 1524 1525 1526 1527 1528 1529 1529 1529 1530 1530 1531 1531 1531 1531 1531 1531 1531 1531 1531 1532 1532 1532 1532 1532 1532 1532 1531 1531 1531 1530 1530 1530 1530 1530 1531 1532 1533 1533 1534 1534 1534 1534 1534 1534 1535 1535 1534 1534 1534 1534 1534 1535 1535 1535 1535 1535 1535 1536 1535 1534 1535 1535 1535 1535 1535 1535 1535 1535 1536 1536 1537